Showing default

YAOGAN-30 K, 43170

Orbit data source: Space-Track

YAOGAN-30 K, 43170 is a payload satellite owned by PLA SSF (CN) in LEO that was launched on Thu, 25 Jan 2018 UTC via a CHANG ZHENG 2C launch vehicle from the Xichang Space Center, China (XSC). Payload-class satellites include a variety of spacecraft equipped with specific instruments for various scientific and technological missions. These include communications satellites like Starlink; space stations such as the ISS; scientific satellites like the Hubble; Earth observation satellites from companies like Planet Labs, Umbra, and HawkEye 360; GPS; miniature CubeSats for education and research; and military/defense satellites.

Loading next visibility...
Identifier
43170, 2018-011B
Orbit
LEO
Country
Flag of CNCN / PRC
Related business
Manufacturer
SECM
Mission
Operational Defense Sigint
Bus & Motor
Unknown
Mass
~500 kg wet, ~500 kg dry
Launch date (UTC)
2018-01-25 (8 years ago)
Launch vehicle
CHANG ZHENG 2C
Launch site
Xichang Space Center, China (XSC)
Object type
Payload
Rocket body
Debris
Shape & HBR
Box + 2 Pan, 0.5 m
Radar Cross Section
0.446 m², Large (>1 m²)

Expand to show TLE details & history
Last TLE update: 10 hours ago

TLE from 10 hours ago
0 YAOGAN-30 K
1 43170U 18011B   25259.34186644  .00003494  00000-0  27354-3 0  9999
2 43170  34.9975  17.7018 0003326  82.8509 277.2577 15.00567600416956
Epoch: 2025-09-16T08:12Z
TLE epoch observation values (Epoch: 2025-09-16T08:12:17.26Z)
Latitude
Longitude
-100.90366°
Altitude
563.772 km
Speed
7.582 km/s
True Right ascension
01h 10m 48s
True Declination
0° 00' 00"
Sunlit
Object was in full shadow at epoch
Visualization orbit readout
Latitude
Unknown
Longitude
Unknown
Altitude
Unknown
Speed
Unknown
Apparent Right ascension
Unknown
Apparent Declination
Unknown
Sunlit
N/A
Visualization observer readout
Local Sidereal Time
10:25:56
Azimuth
Unknown
Elevation
Unknown
Doppler factor
Unknown
Orbital elements
Apogee altitude
570.674 km
Perigee altitude
566.053 km
Semi-major axis
6,946.501 km
Eccentricity
0.00033
Inclination
34.9975°
RAAN
17.7018°
Arg. of periapsis
82.8509°
True anomaly
277.21989°
Mean anomaly
277.2577°
Eccentric anomaly
277.2388°
Mean motion
3.74882 °/min
Orbital period
96.03 mins
BSTAR
0.00027354
Loading maneuver chart data...
Computing Atmospheric mass density...
Loading historical data...
Loading historical data...
Loading historical data...
Loading historical data...
Loading historical data...
Loading historical data...
Loading historical data...
Other satellites on launch #11 in the year 2018 (2018-01-25 UTC)

Documentation

Showing up to 5 results
|